Location: Ferchesar
(52.6477°N, 12.4298°E)
Time: 15:45:58
(UTC+01:00)

Vanguard 3 - Pass Details

Date: 10 December 2021
Orbit: 508 x 3260 km, 33.3° (Epoch: 22 January)

Event Time Altitude Azimuth Distance (km) Brightness Sun altitude
Rises 08:54:50 0° 273° (W) 7,136 11.5 4.1°
Reaches altitude 10° 09:04:02 10° 251° (WSW) 5,731 11.3 5.0°
Maximum altitude 09:09:53 13° 231° (SW) 5,114 11.3 5.6°
Drops below altitude 10° 09:15:03 10° 209° (SSW) 4,917 11.5 6.0°
Sets 09:21:31 0° 184° (S) 5,274 12.2 6.6°
